[[{"header":{"parameterUnit":"m.s-1","parameterCategory":1,"la1":30.2991,"la2":30.254,"lo1":-89.0895,"lo2":-89.0444,"dy":0.0017,"dx":0.0017,"nx":28,"ny":28,"refTime":"2024-09-03T09:00:00:Z","depth":0,"parameterNumber":2,"parameterNumberName":"U-component_of_WINDS"},"data":[0,0,0,0,0,0,0,0,0,0,0,0,0,0,0,0,0,0,0,0,0,0,0,0,0,0,0,0,0,0,0,0,0,0,0,0,0,0,0,0,0,0,0,0,0,0,0,0,0,0,0,0,0,0,0,0,0,0,-6.587,-6.5869,0,-6.5765,-6.5764,-6.5763,-6.5544,-6.5539,-6.5535,-6.553,-6.543,-6.5431,-6.5433,0,0,0,0,0,0,0,0,0,0,0,0,0,-6.5886,-6.5887,-6.587,-6.5869,-6.5867,-6.5766,-6.5764,-6.5763,-6.5544,-6.5539,-6.5534,-6.5528,-6.5429,-6.5431,-6.5433,0,0,0,0,0,0,0,0,0,0,0,0,0,-6.5841,-6.5887,-6.587,-6.5746,-6.5734,-6.5766,-6.5764,-6.5762,-6.5545,-6.5539,-6.5532,-6.5526,-6.5429,-6.5431,-6.5433,-6.5579,0,0,-6.544,-6.5441,0,0,0,0,0,0,0,0,-6.5843,-6.584,-6.5766,-6.5755,-6.5741,-6.566,-6.5733,-6.5701,-6.5547,-6.5617,-6.553,-6.5523,-6.5512,-6.5507,-6.5502,-6.5575,-6.557,-6.544,-6.5441,-6.5442,-6.5443,0,0,0,0,0,0,0,-6.5847,-6.5843,-6.5829,-6.5765,-6.575,-6.5697,-6.5683,-6.5726,-6.5604,-6.5611,-6.5594,-6.5585,-6.5504,-6.5501,-6.5498,-6.5569,-6.544,-6.5442,-6.5443,-6.5444,-6.5754,-6.5761,0,0,0,0,0,0,-6.5867,-6.5848,-6.5832,-6.5826,-6.5777,-6.5702,-6.5687,-6.5693,-6.5602,-6.5582,-6.559,-6.5575,-6.55,-6.5496,-6.5494,-6.5657,-6.5442,-6.5444,-6.5445,-6.5748,-6.5756,-6.5764,0,0,0,0,0,0,-6.5868,-6.5868,-6.5836,-6.5832,-6.5824,-6.5709,-6.5718,-6.5695,-6.569,-6.5587,-6.5565,-6.5609,-6.5495,-6.5491,-6.5559,-6.5651,-6.5445,-6.5447,-6.5739,-6.575,-6.576,-6.5987,0,0,0,0,0,0,-6.587,-6.587,-6.5923,-6.5835,-6.5825,-6.5902,-6.5724,-6.5697,-6.5694,-6.5673,-6.5598,-6.558,-6.5489,-6.5557,-6.5561,-6.565,-6.5449,-6.5731,-6.5744,-6.5756,-6.5971,-6.6004,-6.6032,0,0,0,0,0,-6.5871,-6.5993,-6.5927,-6.5926,-6.5889,-6.5908,-6.5902,-6.5794,-6.5703,-6.5755,-6.5689,-6.5582,-6.5641,-6.5566,-6.5569,-6.566,-6.5724,-6.574,-6.5755,-6.5957,-6.5997,-6.6031,0,0,0,0,0,0,-6.6097,-6.5979,-6.5904,-6.6001,-6.5966,-6.587,-6.5934,-6.5841,-6.5832,-6.5813,-6.5681,-6.5666,-6.5752,-6.5713,-6.5631,-6.5796,-6.5665,-6.5682,-6.5817,-6.5855,-6.5885,-6.5892,-6.5451,0,0,0,0,0,-6.6157,-6.6181,-6.6077,-6.6172,-6.6158,-6.605,-6.6054,-6.5974,-6.5933,-6.5918,-6.5856,-6.5822,-6.5832,-6.5842,-6.5846,-6.5965,-6.5945,-6.6029,-6.606,-6.6086,-6.6101,-6.6159,-6.6195,-6.5815,-6.5815,-6.5814,0,0,-6.6283,-6.6222,-6.6245,-6.6216,-6.6179,-6.6207,-6.6039,-6.6076,-6.6096,-6.5924,-6.5982,-6.5937,-6.5891,-6.5984,-6.6022,-6.5954,-6.6202,-6.6106,-6.6127,-6.6128,-6.6179,-6.6215,-6.6247,-6.5825,-6.5824,-6.5822,0,0,-6.6526,-6.6483,-6.6556,-6.6522,-6.6468,-6.6395,-6.6414,-6.6332,-6.6294,-6.6351,-6.6222,-6.6245,-6.6267,-6.6238,-6.6226,-6.646,-6.636,-6.6465,-6.6625,-6.6683,-6.6713,-6.6739,-6.682,-6.6851,-6.6481,-6.6482,-6.6482,0,-6.669,-6.6725,-6.6606,-6.6651,-6.6642,-6.6486,-6.6559,-6.6533,-6.6485,-6.6483,-6.6407,-6.6429,-6.6387,-6.6471,-6.6528,-6.6524,-6.6541,-6.6471,-6.6718,-6.6743,-6.6765,-6.6841,-6.6872,-6.6495,-6.6493,-6.6492,-6.6491,0,-6.6928,-6.6955,-6.7021,-6.6975,-6.6974,-6.7034,-6.6925,-6.6939,-6.6859,-6.6795,-6.6855,-6.6799,-6.6788,-6.6803,-6.6727,-6.6876,-6.6835,-6.6742,-6.6607,-6.6816,-6.6885,-6.6913,-6.6513,-6.6509,-6.6505,-6.6502,0,0,-6.7309,-6.7195,-6.7221,-6.7198,-6.7127,-6.7146,-6.72,-6.7186,-6.72,-6.7173,-6.7213,-6.7235,-6.7147,-6.7134,-6.7054,-6.7106,-6.7291,-6.7004,-6.7001,-6.7057,-6.745,-6.7519,-6.7555,-6.7226,-6.7231,-6.7235,-6.7453,0,-6.7533,-6.7614,-6.7509,-6.7614,-6.7636,-6.7489,-6.7535,-6.7498,-6.744,-6.7452,-6.7388,-6.7405,-6.7288,-6.7279,-6.7324,-6.7259,-6.7368,-6.7242,-6.7262,-6.7265,-6.7276,-6.7591,-6.7664,-6.7872,-6.748,-6.7484,-6.7487,0,-6.7806,-6.7788,-6.7895,-6.7816,-6.7821,-6.7864,-6.7843,-6.7857,-6.7812,-6.7766,-6.7752,-6.7655,-6.7703,-6.7575,-6.7638,-6.7555,-6.7558,-6.7528,-6.7533,-6.7528,-6.7387,-6.7593,-6.7936,-6.7967,-6.7529,-6.7526,-6.7523,0,-6.807,-6.8074,-6.8136,-6.8122,-6.8032,-6.8065,-6.803,-6.7978,-6.7977,-6.796,-6.7957,-6.7948,-6.7942,-6.7938,-6.7841,-6.7757,-6.7916,-6.778,-6.7879,-6.7882,-6.7917,-6.7916,-6.8264,-6.7924,-6.7924,-6.7923,-6.7923,0,-6.833,-6.8401,-6.8253,-6.8292,-6.8367,-6.8247,-6.8325,-6.8275,-6.823,-6.8257,-6.8131,-6.816,-6.8032,-6.8047,-6.7973,-6.8036,-6.8035,-6.8,-6.7978,-6.8009,-6.8014,-6.8007,-6.7989,-6.7931,-6.793,-6.7928,-6.7927,0,-6.8636,-6.8541,-6.8599,-6.8509,-6.8488,-6.8548,-6.8471,-6.8504,-6.8437,-6.8474,-6.8476,-6.8373,-6.8384,-6.8288,-6.8283,-6.8232,-6.833,-6.8285,-6.8345,-6.8329,-6.8432,-6.8423,-6.8786,-6.8827,-6.8465,-6.8469,-6.8472,0,-6.8807,-6.8858,-6.8772,-6.878,-6.875,-6.8766,-6.8763,-6.8648,-6.865,-6.8602,-6.8641,-6.8642,-6.8636,-6.8662,-6.8588,-6.8583,-6.8536,-6.8663,-6.8534,-6.8563,-6.8534,-6.8532,-6.8535,-6.869,-6.8694,-6.8698,-6.8701,0,-6.9121,-6.9071,-6.907,-6.9054,-6.9054,-6.9036,-6.901,-6.9025,-6.8899,-6.8909,-6.8918,-6.8913,-6.8906,-6.8909,-6.8889,-6.8854,-6.8757,-6.8742,-6.8764,-6.8795,-6.8826,-6.8808,-6.8415,-6.8734,-6.8731,-6.8728,-6.8727,-6.8725,-6.9363,-6.94,-6.9345,-6.9348,-6.9316,-6.9295,-6.932,-6.9257,-6.9262,-6.9245,-6.9178,-6.9199,-6.9152,-6.9115,-6.9089,-6.9105,-6.9043,-6.9076,-6.9084,-6.9093,-6.911,-6.8826,-6.9101,-6.91,-6.9099,-6.9098,-6.9097,0,-6.9667,-6.9624,-6.9629,-6.9595,-6.9599,-6.9506,-6.9472,-6.9482,-6.9501,-6.9465,-6.9461,-6.9471,-6.9473,-6.9399,-6.9391,-6.9418,-6.9373,-6.942,-6.9415,-6.9408,-6.9167,-6.9147,-6.9456,-6.9456,-6.9456,-6.9456,-6.9455,-6.9455,-6.9826,-6.9883,-6.9827,-6.9867,-6.9823,-6.9841,-6.983,-6.9809,-6.9779,-6.9796,-6.9795,-6.9746,-6.9695,-6.9682,-6.968,-6.9658,-6.966,-6.9722,-6.9685,-6.9461,-6.9426,-6.9393,-6.9373,-6.9724,-6.9724,-6.9924,-6.9926,-6.9928]},{"header":{"parameterUnit":"m.s-1","parameterCategory":1,"la1":30.2991,"la2":30.254,"lo1":-89.0895,"lo2":-89.0444,"dy":0.0017,"dx":0.0017,"nx":28,"ny":28,"refTime":"2024-09-03T09:00:00:Z","depth":0,"parameterNumber":3,"parameterNumberName":"V-component_of_WINDS"},"data":[0,0,0,0,0,0,0,0,0,0,0,0,0,0,0,0,0,0,0,0,0,0,0,0,0,0,0,0,0,0,0,0,0,0,0,0,0,0,0,0,0,0,0,0,0,0,0,0,0,0,0,0,0,0,0,0,0,0,2.2926,2.2927,0,2.3045,2.3046,2.3047,2.3114,2.3114,2.3115,2.3115,2.323,2.3233,2.3236,0,0,0,0,0,0,0,0,0,0,0,0,0,2.2752,2.2755,2.2925,2.2927,2.2928,2.3044,2.3046,2.3048,2.3114,2.3114,2.3115,2.3115,2.3229,2.3233,2.3236,0,0,0,0,0,0,0,0,0,0,0,0,0,2.2845,2.2756,2.2925,2.2976,2.2981,2.3044,2.3046,2.3048,2.3114,2.3114,2.3115,2.3115,2.3228,2.3232,2.3237,2.3256,0,0,2.325,2.3252,0,0,0,0,0,0,0,0,2.284,2.2851,2.2967,2.2972,2.2979,2.3065,2.3027,2.3117,2.3114,2.3063,2.3115,2.3115,2.3175,2.3183,2.3205,2.3261,2.3266,2.325,2.3253,2.3254,2.3256,0,0,0,0,0,0,0,2.2833,2.2846,2.2972,2.2968,2.2976,2.2991,2.3005,2.3045,2.3115,2.3068,2.3073,2.3087,2.3178,2.32,2.3208,2.3268,2.325,2.3254,2.3256,2.3258,2.335,2.335,0,0,0,0,0,0,2.2819,2.2841,2.2969,2.2976,2.2909,2.2994,2.3009,2.3037,2.3115,2.3128,2.3086,2.3089,2.3193,2.3203,2.3212,2.3242,2.3254,2.3258,2.3261,2.335,2.335,2.335,0,0,0,0,0,0,2.2815,2.283,2.2964,2.291,2.2928,2.2997,2.3027,2.3039,2.3062,2.3129,2.3141,2.3096,2.3193,2.3206,2.3246,2.3247,2.326,2.3264,2.3351,2.335,2.335,2.3301,0,0,0,0,0,0,2.281,2.2828,2.2837,2.291,2.2931,2.2996,2.3027,2.3041,2.307,2.3075,2.3142,2.3153,2.3195,2.3239,2.325,2.3253,2.3268,2.3351,2.3351,2.335,2.3302,2.3299,2.3296,0,0,0,0,0,2.2804,2.2816,2.2837,2.2852,2.2943,2.2996,2.3008,2.3057,2.3069,2.3078,2.3122,2.3151,2.3245,2.3243,2.3256,2.326,2.3351,2.3351,2.335,2.3304,2.3299,2.3296,0,0,0,0,0,0,2.2737,2.2826,2.285,2.2887,2.2934,2.3007,2.302,2.305,2.3093,2.3096,2.3154,2.3168,2.3203,2.3235,2.3231,2.3285,2.3301,2.3304,2.3262,2.3258,2.3255,2.3245,2.3271,0,0,0,0,0,2.2728,2.2765,2.284,2.2864,2.2887,2.295,2.2974,2.3009,2.3059,2.3078,2.3125,2.3171,2.3212,2.3237,2.3277,2.3308,2.3324,2.3318,2.3314,2.3311,2.3312,2.3333,2.3332,2.3349,2.3349,2.3349,0,0,2.2706,2.276,2.2779,2.2853,2.2893,2.293,2.2965,2.3002,2.3029,2.3083,2.3125,2.3161,2.3216,2.3253,2.3271,2.3281,2.3312,2.3311,2.3308,2.3311,2.3333,2.3331,2.333,2.3349,2.3349,2.3349,0,0,2.2687,2.2731,2.2758,2.2799,2.2862,2.2904,2.291,2.2981,2.3008,2.3051,2.3093,2.3126,2.3194,2.3233,2.3261,2.3262,2.3291,2.3274,2.3255,2.3275,2.3274,2.3273,2.3274,2.3274,2.3275,2.3274,2.3274,0,2.2652,2.2711,2.2767,2.2803,2.2834,2.2889,2.2917,2.2953,2.3024,2.3045,2.3056,2.3145,2.3186,2.3233,2.3234,2.3255,2.3264,2.3265,2.327,2.3269,2.3269,2.3271,2.3271,2.3272,2.3272,2.3273,2.3273,0,2.2665,2.2705,2.272,2.2791,2.2825,2.2856,2.2917,2.2944,2.2976,2.3017,2.3062,2.3114,2.3168,2.3182,2.3212,2.3234,2.3239,2.3259,2.3277,2.3264,2.3267,2.3268,2.3269,2.3269,2.327,2.3271,0,0,2.2603,2.271,2.2714,2.2749,2.2824,2.2855,2.289,2.2946,2.2968,2.3017,2.3047,2.3106,2.3127,2.3159,2.3195,2.3213,2.3212,2.3232,2.3234,2.3227,2.3241,2.3225,2.3225,2.3233,2.3233,2.3233,2.3237,0,2.2595,2.2661,2.2715,2.2761,2.28,2.2855,2.2885,2.2935,2.2975,2.3013,2.3056,2.3098,2.3121,2.3142,2.3162,2.3208,2.3216,2.3208,2.3261,2.3262,2.3245,2.3226,2.3209,2.321,2.3238,2.3238,2.3239,0,2.2592,2.2643,2.2694,2.2769,2.2787,2.2814,2.2871,2.2907,2.2964,2.2993,2.3032,2.3071,2.311,2.3126,2.3181,2.3175,2.32,2.3226,2.3227,2.3233,2.3249,2.3232,2.3211,2.3211,2.3241,2.3241,2.324,0,2.2543,2.2623,2.2665,2.2693,2.2782,2.2799,2.2837,2.2895,2.2927,2.2976,2.2997,2.305,2.3078,2.3118,2.317,2.3177,2.322,2.324,2.3245,2.3243,2.325,2.3248,2.3232,2.3266,2.3266,2.3266,2.3266,0,2.2527,2.2556,2.2645,2.267,2.2705,2.2768,2.28,2.2842,2.2895,2.2929,2.2979,2.301,2.3078,2.3117,2.3158,2.3199,2.3211,2.3234,2.3245,2.323,2.3227,2.3246,2.3247,2.3266,2.3266,2.3266,2.3266,0,2.2476,2.2537,2.2586,2.2668,2.269,2.2712,2.2782,2.2808,2.2854,2.2897,2.291,2.298,2.303,2.3087,2.3153,2.3181,2.3219,2.3234,2.32,2.3206,2.3207,2.3207,2.3203,2.3206,2.3237,2.3237,2.3237,0,2.2461,2.2485,2.2572,2.26,2.2637,2.2681,2.2715,2.2779,2.2811,2.2882,2.29,2.2955,2.3001,2.3077,2.3133,2.3185,2.3202,2.3198,2.321,2.3195,2.3203,2.3201,2.3204,2.3193,2.3193,2.3192,2.3192,0,2.2428,2.2459,2.2507,2.2566,2.2606,2.2655,2.2706,2.2726,2.28,2.2834,2.2887,2.2924,2.2995,2.3048,2.3108,2.3146,2.3181,2.3188,2.3192,2.3176,2.3156,2.3168,2.319,2.3187,2.3188,2.3188,2.3188,2.3188,2.2395,2.2421,2.2487,2.254,2.2586,2.2634,2.2665,2.2716,2.2762,2.2827,2.2861,2.2914,2.2975,2.306,2.3097,2.3139,2.315,2.3156,2.3157,2.3157,2.3154,2.315,2.315,2.315,2.315,2.315,2.3151,0,2.2366,2.2413,2.2461,2.2533,2.2575,2.2609,2.2668,2.27,2.2747,2.2802,2.2849,2.2911,2.2964,2.3026,2.3083,2.3105,2.3123,2.3118,2.3116,2.3125,2.3139,2.3131,2.3103,2.3103,2.3103,2.3103,2.3103,2.3103,2.2355,2.2401,2.244,2.2511,2.2557,2.2611,2.2643,2.2688,2.2732,2.2801,2.2847,2.2888,2.2947,2.301,2.306,2.3077,2.3096,2.3086,2.3108,2.3119,2.3123,2.3127,2.3119,2.309,2.309,2.309,2.309,2.309]}]]